Volver al catálogo

STARLINK-3670

ActivoComunicacionesVLEO
NORAD 52106·PAYLOAD·🇺🇸 United States

Lanzado Mar 19, 2022 desde Cape Canaveral Space Force Station

Loading…

Próximos Pases (próximas 24 horas)

TLE

ActualizadoSource: CelesTrak SupGP

Época: Sep 14, 2026, 14:27 UTC

1 52106C 22029U   26257.60256944  .00045484  00000+0  13441-2 0  2573
2 52106  53.1590 305.2439 0001341  73.3314 349.0208 15.34361588    16

Sigue STARLINK-3670 en tiempo real con AllMySat

Download on the App Store